• In Belgien
  • Länderverzeichnis
  • Für 7 Tage
  • Wassertemperatur
  • Satellitenkarten
  • Wetterkarte
  • Widgets
  • user-avatar
    Anmelden

    Stündliche Wetter Jerewan

    Heute, 25 April, Mittwoch

    Zeit Temperatur Niederschläge Wind Luftdruck Luftfeuchtigkeit
    00:00 +14°C° 0 mm 2 m/S 691 mmHg 57%
    01:00 +13°C° 0 mm 1 m/S 691 mmHg 59%
    02:00 +13°C° 0 mm 1 m/S 691 mmHg 60%
    03:00 +12°C° 0 mm 2 m/S 691 mmHg 60%
    04:00 +12°C° 0 mm 2 m/S 691 mmHg 60%
    05:00 +13°C° 0 mm 1 m/S 691 mmHg 61%
    06:00 +13°C° 0 mm 1 m/S 691 mmHg 62%
    07:00 +14°C° 0 mm 1 m/S 691 mmHg 57%
    08:00 +16°C° 0 mm 2 m/S 691 mmHg 52%
    09:00 +18°C° 0 mm 2 m/S 692 mmHg 47%
    10:00 +19°C° 0 mm 2 m/S 691 mmHg 44%
    11:00 +20°C° 0 mm 2 m/S 691 mmHg 41%
    12:00 +21°C° 0 mm 2 m/S 691 mmHg 37%
    13:00 +23°C° 0 mm 2 m/S 691 mmHg 36%
    14:00 +23°C° 0 mm 2 m/S 691 mmHg 35%
    15:00 +24°C° 0 mm 2 m/S 690 mmHg 33%
    16:00 +23°C° 0,1 mm 2 m/S 690 mmHg 36%
    17:00 +21°C° 0,1 mm 2 m/S 690 mmHg 38%
    18:00 +21°C° 0,1 mm 2 m/S 690 mmHg 41%
    19:00 +19°C° 0,2 mm 2 m/S 690 mmHg 44%
    20:00 +19°C° 0,2 mm 1 m/S 690 mmHg 47%
    21:00 +18°C° 0,2 mm 1 m/S 690 mmHg 50%
    22:00 +16°C° 0,1 mm 1 m/S 690 mmHg 52%
    23:00 +16°C° 0,1 mm 1 m/S 690 mmHg 54%

    Morgen, 26 April, Donnerstag

    Zeit Temperatur Niederschläge Wind Luftdruck Luftfeuchtigkeit
    00:00 +15°C° 0,1 mm 1 m/S 690 mmHg 56%
    01:00 +15°C° 0,1 mm 1 m/S 690 mmHg 58%
    02:00 +14°C° 0,1 mm 1 m/S 690 mmHg 59%
    03:00 +14°C° 0,1 mm 1 m/S 690 mmHg 61%
    04:00 +14°C° 0,1 mm 1 m/S 690 mmHg 61%
    05:00 +14°C° 0,1 mm 1 m/S 690 mmHg 61%
    06:00 +14°C° 0,1 mm 1 m/S 691 mmHg 62%
    07:00 +16°C° 0 mm 1 m/S 691 mmHg 55%
    08:00 +19°C° 0 mm 1 m/S 691 mmHg 48%
    09:00 +21°C° 0 mm 1 m/S 691 mmHg 41%
    10:00 +21°C° 0 mm 2 m/S 691 mmHg 38%
    11:00 +23°C° 0 mm 2 m/S 691 mmHg 35%
    12:00 +24°C° 0 mm 2 m/S 691 mmHg 33%
    13:00 +24°C° 0,1 mm 2 m/S 690 mmHg 32%
    14:00 +25°C° 0,1 mm 2 m/S 690 mmHg 31%
    15:00 +25°C° 0,1 mm 2 m/S 690 mmHg 29%
    16:00 +25°C° 0,1 mm 2 m/S 690 mmHg 32%
    17:00 +24°C° 0,1 mm 2 m/S 690 mmHg 34%
    18:00 +23°C° 0,1 mm 1 m/S 690 mmHg 36%
    19:00 +22°C° 0 mm 1 m/S 690 mmHg 39%
    20:00 +20°C° 0 mm 1 m/S 690 mmHg 43%
    21:00 +18°C° 0 mm 2 m/S 691 mmHg 46%
    22:00 +17°C° 0 mm 2 m/S 691 mmHg 50%
    23:00 +17°C° 0 mm 2 m/S 690 mmHg 53%

    übermorgen, 27 April, Freitag

    Zeit Temperatur Niederschläge Wind Luftdruck Luftfeuchtigkeit
    00:00 +16°C° 0 mm 2 m/S 690 mmHg 57%
    01:00 +16°C° 0 mm 2 m/S 690 mmHg 59%
    02:00 +15°C° 0 mm 1 m/S 690 mmHg 62%
    03:00 +15°C° 0 mm 1 m/S 690 mmHg 64%
    04:00 +15°C° 0 mm 1 m/S 690 mmHg 65%
    05:00 +15°C° 0 mm 1 m/S 690 mmHg 65%
    06:00 +15°C° 0 mm 1 m/S 690 mmHg 65%
    07:00 +18°C° 0 mm 1 m/S 690 mmHg 57%
    08:00 +20°C° 0 mm 1 m/S 690 mmHg 49%
    09:00 +21°C° 0 mm 2 m/S 690 mmHg 41%
    10:00 +23°C° 0 mm 2 m/S 690 mmHg 39%
    11:00 +24°C° 0 mm 2 m/S 690 mmHg 36%
    12:00 +25°C° 0 mm 2 m/S 689 mmHg 33%
    13:00 +25°C° 0,1 mm 2 m/S 689 mmHg 33%
    14:00 +25°C° 0,1 mm 3 m/S 689 mmHg 34%
    15:00 +26°C° 0,1 mm 3 m/S 689 mmHg 34%
    16:00 +24°C° 0,4 mm 3 m/S 689 mmHg 39%
    17:00 +22°C° 0,4 mm 3 m/S 689 mmHg 44%
    18:00 +21°C° 0,4 mm 3 m/S 689 mmHg 50%
    19:00 +20°C° 0,4 mm 3 m/S 689 mmHg 54%
    20:00 +19°C° 0,4 mm 2 m/S 689 mmHg 59%
    21:00 +18°C° 0,4 mm 2 m/S 689 mmHg 64%
    22:00 +18°C° 0,4 mm 1 m/S 689 mmHg 67%
    23:00 +18°C° 0,4 mm 1 m/S 689 mmHg 70%

    28 April, Samstag

    Zeit Temperatur Niederschläge Wind Luftdruck Luftfeuchtigkeit
    00:00 +16°C° 0,4 mm 1 m/S 689 mmHg 73%
    01:00 +16°C° 0,2 mm 1 m/S 688 mmHg 74%
    02:00 +16°C° 0,2 mm 1 m/S 688 mmHg 75%
    03:00 +15°C° 0,2 mm 1 m/S 688 mmHg 76%
    04:00 +15°C° 0,1 mm 1 m/S 688 mmHg 76%
    05:00 +15°C° 0,1 mm 1 m/S 688 mmHg 76%
    06:00 +15°C° 0,1 mm 1 m/S 688 mmHg 76%
    07:00 +18°C° 0,1 mm 1 m/S 688 mmHg 70%
    08:00 +19°C° 0,1 mm 1 m/S 688 mmHg 64%
    09:00 +20°C° 0,1 mm 1 m/S 688 mmHg 58%
    10:00 +21°C° 0,2 mm 1 m/S 688 mmHg 55%
    11:00 +22°C° 0,2 mm 1 m/S 688 mmHg 51%
    12:00 +23°C° 0,2 mm 2 m/S 688 mmHg 48%
    13:00 +24°C° 0,3 mm 2 m/S 688 mmHg 47%
    14:00 +24°C° 0,3 mm 2 m/S 688 mmHg 46%
    15:00 +24°C° 0,3 mm 2 m/S 688 mmHg 45%
    16:00 +24°C° 0,5 mm 2 m/S 688 mmHg 48%
    17:00 +22°C° 0,5 mm 3 m/S 688 mmHg 50%
    18:00 +21°C° 0,5 mm 3 m/S 689 mmHg 53%
    19:00 +20°C° 0,4 mm 2 m/S 689 mmHg 57%
    20:00 +19°C° 0,4 mm 2 m/S 690 mmHg 61%
    21:00 +19°C° 0,4 mm 1 m/S 690 mmHg 65%
    22:00 +18°C° 0,2 mm 1 m/S 690 mmHg 67%
    23:00 +18°C° 0,2 mm 1 m/S 690 mmHg 68%

    29 April, Sonntag

    Zeit Temperatur Niederschläge Wind Luftdruck Luftfeuchtigkeit
    00:00 +18°C° 0,2 mm 1 m/S 690 mmHg 70%
    01:00 +16°C° 0,1 mm 1 m/S 690 mmHg 71%
    02:00 +16°C° 0,1 mm 1 m/S 690 mmHg 73%
    03:00 +15°C° 0,1 mm 1 m/S 690 mmHg 74%
    04:00 +15°C° 0,1 mm 1 m/S 691 mmHg 73%
    05:00 +15°C° 0,1 mm 1 m/S 691 mmHg 73%
    06:00 +16°C° 0,1 mm 1 m/S 691 mmHg 72%
    07:00 +18°C° 0,1 mm 1 m/S 692 mmHg 67%
    08:00 +19°C° 0,1 mm 1 m/S 692 mmHg 62%
    09:00 +20°C° 0,1 mm 1 m/S 692 mmHg 57%
    10:00 +21°C° 0,1 mm 1 m/S 692 mmHg 54%
    11:00 +22°C° 0,1 mm 1 m/S 691 mmHg 51%
    12:00 +23°C° 0,1 mm 2 m/S 691 mmHg 48%
    13:00 +23°C° 0,2 mm 2 m/S 691 mmHg 47%
    14:00 +24°C° 0,2 mm 2 m/S 690 mmHg 45%
    15:00 +24°C° 0,2 mm 2 m/S 690 mmHg 44%
    16:00 +24°C° 0,3 mm 2 m/S 690 mmHg 46%
    17:00 +23°C° 0,3 mm 2 m/S 690 mmHg 49%
    18:00 +23°C° 0,3 mm 2 m/S 690 mmHg 51%
    19:00 +20°C° 0,3 mm 2 m/S 690 mmHg 55%
    20:00 +20°C° 0,3 mm 1 m/S 691 mmHg 59%
    21:00 +19°C° 0,3 mm 1 m/S 691 mmHg 64%
    22:00 +19°C° 0,3 mm 1 m/S 691 mmHg 66%
    23:00 +18°C° 0,3 mm 1 m/S 691 mmHg 68%

    30 April, Montag

    Zeit Temperatur Niederschläge Wind Luftdruck Luftfeuchtigkeit
    00:00 +18°C° 0,3 mm 1 m/S 691 mmHg 70%
    01:00 +16°C° 0,1 mm 1 m/S 691 mmHg 72%
    02:00 +16°C° 0,1 mm 1 m/S 691 mmHg 74%
    03:00 +15°C° 0,1 mm 1 m/S 691 mmHg 76%
    04:00 +16°C° 0,1 mm 1 m/S 691 mmHg 75%
    05:00 +16°C° 0,1 mm 1 m/S 691 mmHg 75%
    06:00 +16°C° 0,1 mm 1 m/S 692 mmHg 75%
    07:00 +18°C° 0 mm 1 m/S 692 mmHg 68%
    08:00 +20°C° 0 mm 1 m/S 692 mmHg 62%
    09:00 +21°C° 0 mm 1 m/S 692 mmHg 55%
    10:00 +21°C° 0,1 mm 2 m/S 691 mmHg 52%
    11:00 +23°C° 0,1 mm 2 m/S 691 mmHg 48%
    12:00 +24°C° 0,1 mm 2 m/S 691 mmHg 44%
    13:00 +25°C° 0,1 mm 2 m/S 690 mmHg 42%
    14:00 +25°C° 0,1 mm 3 m/S 690 mmHg 40%
    15:00 +26°C° 0,1 mm 3 m/S 690 mmHg 38%
    16:00 +25°C° 0,1 mm 2 m/S 690 mmHg 40%
    17:00 +24°C° 0,1 mm 2 m/S 690 mmHg 42%
    18:00 +24°C° 0,1 mm 2 m/S 690 mmHg 43%
    19:00 +21°C° 0,1 mm 2 m/S 690 mmHg 47%
    20:00 +21°C° 0,1 mm 1 m/S 690 mmHg 51%
    21:00 +20°C° 0,1 mm 1 m/S 690 mmHg 55%
    22:00 +19°C° 0 mm 1 m/S 690 mmHg 57%
    23:00 +19°C° 0 mm 1 m/S 690 mmHg 59%
    Mehr zeigen